Location: T�bingen+AIT
(48.5342°N, 9.0700°E)
Time: 15:06:23
(UTC+01:00)

Cosmos 1626 Rocket - Pass Details

Date: 14 September 2017
Orbit: 603 x 631 km, 82.5° (Epoch: 17 November)

Event Time Altitude Azimuth Distance (km) Brightness Sun altitude
Rises 20:04:49 0° 349° (N) 2,895 7.3 -5.2°
Reaches altitude 10° 20:07:02 10° 349° (N) 1,990 6.5 -5.5°
Maximum altitude 20:11:27 84° 263° (W) 630 3.7 -6.2°
Drops below altitude 10° 20:15:52 10° 174° (S) 1,991 6.0 -7.0°
Sets 20:18:06 0° 174° (S) 2,896 6.8 -7.3°
